Radioactive Concentration measured by Seawater Radiation Monitor near Fukushima Daiichi Nuclear Power Station
Date,Time,Cs137(Bq/L),Cs134(Bq/L),Total β(Bq/L)
2018/08/31,00:00,0.43,ND,ND
2018/08/31,00:10,0.42,ND,ND
2018/08/31,00:20,0.41,ND,ND
2018/08/31,00:30,0.33,ND,ND
2018/08/31,00:40,0.33,ND,ND
2018/08/31,00:50,0.30,ND,ND
2018/08/31,01:00,0.28,ND,ND
2018/08/31,01:10,0.32,ND,ND
2018/08/31,01:20,0.23,ND,ND
2018/08/31,01:30,0.27,ND,ND
2018/08/31,01:40,0.16,ND,ND
2018/08/31,01:50,0.16,ND,ND
2018/08/31,02:00,0.16,ND,ND
2018/08/31,02:10,0.22,ND,ND
2018/08/31,02:20,0.23,ND,ND
2018/08/31,02:30,0.24,ND,ND
2018/08/31,02:40,0.19,ND,ND
2018/08/31,02:50,0.17,ND,ND
2018/08/31,03:00,0.17,ND,ND
2018/08/31,03:10,0.16,ND,ND
2018/08/31,03:20,0.14,ND,ND
2018/08/31,03:30,0.23,ND,ND
2018/08/31,03:40,0.15,ND,ND
2018/08/31,03:50,0.15,ND,ND
2018/08/31,04:00,0.13,ND,ND
2018/08/31,04:10,0.13,ND,ND
2018/08/31,04:20,0.18,ND,ND
2018/08/31,04:30,0.088,ND,ND
2018/08/31,04:40,0.092,ND,ND
2018/08/31,04:50,0.17,ND,ND
2018/08/31,05:00,0.16,ND,ND
2018/08/31,05:10,0.089,ND,ND
2018/08/31,05:20,0.088,ND,ND
2018/08/31,05:30,0.080,ND,ND
2018/08/31,05:40,0.077,ND,ND
2018/08/31,05:50,0.072,ND,ND
2018/08/31,06:00,0.084,ND,ND
2018/08/31,06:10,0.089,ND,ND
2018/08/31,06:20,0.11,ND,ND
2018/08/31,06:30,0.15,ND,ND
2018/08/31,06:40,0.17,ND,ND
2018/08/31,06:50,0.20,ND,ND
2018/08/31,07:00,0.23,ND,ND
2018/08/31,07:10,0.25,ND,ND
2018/08/31,07:20,0.26,ND,ND
2018/08/31,07:30,0.27,ND,ND
2018/08/31,07:40,0.27,ND,ND
2018/08/31,07:50,0.28,ND,ND
2018/08/31,08:00,0.27,ND,ND
2018/08/31,08:10,0.32,ND,ND
2018/08/31,08:20,0.32,ND,ND
2018/08/31,08:30,0.28,ND,ND
2018/08/31,08:40,0.27,ND,ND
2018/08/31,08:50,0.30,ND,ND
2018/08/31,09:00,0.30,ND,ND
2018/08/31,09:10,0.23,ND,ND
2018/08/31,09:20,0.23,ND,ND
2018/08/31,09:30,0.21,ND,ND
2018/08/31,09:40,0.19,ND,ND
2018/08/31,09:50,0.18,ND,ND
2018/08/31,10:00,0.18,ND,ND
2018/08/31,10:10,0.18,ND,ND
2018/08/31,10:20,0.24,ND,ND
2018/08/31,10:30,0.21,ND,ND
2018/08/31,10:40,0.22,ND,ND
2018/08/31,10:50,0.23,ND,ND
2018/08/31,11:00,0.28,ND,ND
2018/08/31,11:10,0.30,ND,ND
2018/08/31,11:20,0.26,ND,ND
2018/08/31,11:30,0.27,ND,ND
2018/08/31,11:40,0.28,ND,ND
2018/08/31,11:50,0.30,ND,ND
2018/08/31,12:00,0.39,ND,ND
2018/08/31,12:10,0.40,ND,ND
2018/08/31,12:20,0.43,ND,ND
2018/08/31,12:30,0.44,ND,ND
2018/08/31,12:40,0.39,ND,ND
2018/08/31,12:50,0.39,ND,ND
2018/08/31,13:00,0.38,ND,ND
2018/08/31,13:10,0.39,ND,ND
2018/08/31,13:20,0.39,ND,ND
2018/08/31,13:30,0.40,ND,ND
2018/08/31,13:40,0.42,ND,ND
2018/08/31,13:50,0.42,ND,ND
2018/08/31,14:00,0.43,ND,ND
2018/08/31,14:10,0.53,ND,ND
2018/08/31,14:20,0.51,ND,ND
2018/08/31,14:30,0.48,ND,ND
2018/08/31,14:40,0.55,ND,ND
2018/08/31,14:50,0.57,ND,ND
2018/08/31,15:00,0.57,ND,ND
2018/08/31,15:10,0.52,ND,ND
2018/08/31,15:20,0.59,ND,ND
2018/08/31,15:30,0.57,ND,ND
2018/08/31,15:40,0.57,ND,ND
2018/08/31,15:50,0.55,ND,ND
2018/08/31,16:00,0.56,ND,ND
2018/08/31,16:10,0.56,ND,ND
2018/08/31,16:20,0.57,ND,ND
2018/08/31,16:30,0.59,ND,ND
2018/08/31,16:40,0.49,ND,ND
2018/08/31,16:50,0.48,ND,ND
2018/08/31,17:00,0.49,ND,ND
2018/08/31,17:10,0.47,ND,ND
2018/08/31,17:20,0.45,ND,ND
2018/08/31,17:30,0.52,ND,ND
2018/08/31,17:40,0.54,ND,ND
2018/08/31,17:50,0.53,ND,ND
2018/08/31,18:00,0.53,ND,ND
2018/08/31,18:10,0.53,ND,ND
2018/08/31,18:20,0.44,ND,ND
2018/08/31,18:30,0.41,ND,ND
2018/08/31,18:40,0.37,ND,ND
2018/08/31,18:50,0.37,ND,ND
2018/08/31,19:00,0.35,ND,ND
2018/08/31,19:10,0.34,ND,ND
2018/08/31,19:20,0.35,ND,ND
2018/08/31,19:30,0.35,ND,ND
2018/08/31,19:40,0.36,ND,ND
2018/08/31,19:50,0.42,ND,ND
2018/08/31,20:00,0.43,ND,ND
2018/08/31,20:10,0.42,ND,ND
2018/08/31,20:20,0.41,ND,ND
2018/08/31,20:30,0.33,ND,ND
2018/08/31,20:40,0.31,ND,ND
2018/08/31,20:50,0.31,ND,ND
2018/08/31,21:00,0.30,ND,ND
2018/08/31,21:10,0.30,ND,ND
2018/08/31,21:20,0.37,ND,ND
2018/08/31,21:30,0.38,ND,ND
2018/08/31,21:40,0.38,ND,ND
2018/08/31,21:50,0.29,ND,ND
2018/08/31,22:00,0.38,ND,ND
2018/08/31,22:10,0.31,ND,ND
2018/08/31,22:20,0.30,ND,ND
2018/08/31,22:30,0.29,ND,ND
2018/08/31,22:40,0.29,ND,ND
2018/08/31,22:50,0.30,ND,ND
2018/08/31,23:00,0.26,ND,ND
2018/08/31,23:10,0.25,ND,ND
2018/08/31,23:20,0.24,ND,ND
2018/08/31,23:30,0.27,ND,ND
2018/08/31,23:40,0.26,ND,ND
2018/08/31,23:50,0.23,ND,ND
